User: anonymous   Login
Location: Unspecified
(0.0000°N, 0.0000°E)
Time: 20:01:28
(UTC+00:00)
Language:

SOHLA-1 (MAIDO-1) - Orbit

View from above orbital plane
View from above orbital plane
View from above satellite
View from above satellite

Ground track
Ground track

The orbit data is extracted from the following two-line orbital elements,

1 33496U 09002E   17144.94939317 +.00000033 +00000-0 +13739-4 0  9991
2 33496 098.3103 294.2197 0007600 081.8088 034.0058 14.71686863446825
Epoch (UTC): 24 May 2017 22:47:07
Eccentricity: 0.0007600
inclination: 98.3103°
perigee height: 650 km
apogee height: 661 km
right ascension of ascending node: 294.2197°
argument of perigee: 81.8088°
revolutions per day: 14.71686863
mean anomaly at epoch: 34.0058°
orbit number at epoch: 44682

The dashed part of the orbit path shows where the satellite is in the earth's shadow,  

DLR